Location: Zagreb
(45.8000°N, 16.0000°E)
Time: 20:09:22
(UTC+01:00)

YUBILEINY - Pass Details

Date: 06 November 2020
Orbit: 1478 x 1509 km, 82.5° (Epoch: 01 December)

Event Time Altitude Azimuth Distance (km) Brightness Sun altitude
Rises 20:02:49 0° 352° (N) 4,610 ? -36.3°
Reaches altitude 10° 20:05:48 10° 357° (N) 3,627 ? -36.8°
Enters shadow 20:10:20 33° 14° (NNE) 2,295 ? -37.6°
